Location: *
(47.4167°N, 19.3333°E)
Time: 20:42:20
(UTC+00:00)

Daily predictions for brighter satellites

Satellite Brightness Start Highest point End
(mag) Time Altitude Azimuth Time Altitude Azimuth Time Altitude Azimuth
CZ-2C R/B 3.1 17:43:48 10° SE 17:48:28 49° ENE 17:53:04 10° N
Cosmos 1703 4.1 17:46:20 10° N 17:49:54 31° ENE 17:53:27 10° SE
STARLINK-67 3.3 17:51:40 10° NW 17:54:08 38° NNE 17:56:34 10° E
Cosmos 2251 Rocket 3.7 17:49:47 10° SSW 17:55:10 88° WNW 18:00:35 10° NNE
ATLAS 2AS CENTAUR R/B 3.0 17:48:38 10° NW 17:56:18 64° NE 18:03:19 10° SE
Cosmos 1437 2.5 17:56:12 10° N 17:59:13 65° ENE 18:02:13 10° SSE
SL-08 RB Rocket 4.2 17:55:08 10° SE 17:59:24 41° ENE 18:03:45 10° N
Cosmos 1908 4.0 17:58:14 10° SSE 18:01:39 31° E 18:05:07 10° NNE
CZ-4 R/B 4.1 17:58:58 10° SW 18:01:58 21° W 18:05:00 10° NW
CZ-4C R/B 4.5 17:58:04 10° NW 18:02:43 21° N 18:07:56 10° NE
Cosmos 2263 4.4 17:57:25 10° NNW 18:03:03 78° WSW 18:08:38 10° SSE
Cosmos 1943 3.2 17:58:40 10° SSW 18:04:18 75° ESE 18:10:00 10° NNE
SeaSat 1 2.8 18:00:25 10° NNE 18:05:21 72° WNW 18:10:15 10° SW
Ariane Rocket 3.1 18:02:22 10° SSE 18:07:27 87° WSW 18:12:33 10° NNW
MONITOR-E 3.7 18:06:16 10° SSE 18:08:51 63° ENE 18:11:29 10° N
IRS-1A Rocket 4.4 18:05:17 10° SSE 18:11:01 87° WSW 18:16:54 10° NNW
Cosmos 1140 Rocket 4.3 18:06:51 10° SSE 18:11:15 28° E 18:15:37 10° NE
IRIDIUM 104 4.3 18:07:02 10° N 18:12:18 86° E 18:17:31 10° S
Cosmos 1953 2.6 18:08:33 10° SSW 18:12:30 71° W 18:16:31 10° N
Cosmos 1656 Rocket 3.7 18:06:49 10° NNW 18:12:32 85° ENE 18:18:07 10° SSE
STARLINK-1228 3.5 18:10:22 10° NW 18:13:11 42° NNE 18:15:31 13° E
Cosmos 2184 Rocket 4.0 18:08:40 10° N 18:15:00 81° E 18:21:13 10° S
Meteor 1-11 4.5 18:10:25 10° N 18:16:03 53° ENE 18:21:36 10° SSE
COSMOS 2455 3.4 18:11:17 10° NNW 18:17:03 44° NE 18:22:01 14° ESE
Cosmos 1726 2.2 18:13:33 10° S 18:17:16 85° W 18:21:02 10° N
Meteor 2-10 4.2 18:13:55 10° S 18:19:24 89° E 18:25:06 10° NNE
CZ-2C R/B 3.3 18:15:40 10° NNE 18:20:11 30° E 18:24:42 10° SSE
MetOp-A 4.4 18:15:09 10° SE 18:20:19 52° ENE 18:25:31 10° N
Cosmos 2058 Rocket 3.7 18:17:17 10° SSE 18:21:24 36° E 18:25:32 10° NNE
IRIDIUM 114 4.5 18:16:12 10° N 18:21:27 80° W 18:26:39 10° S
Cosmos 614 Rocket 4.0 18:18:29 10° S 18:23:36 58° ESE 18:28:43 10° NNE
ARGOS 3.2 18:21:06 10° SSE 18:26:31 84° WSW 18:31:55 10° NNW
Cosmos 1726 Rocket 3.5 18:25:04 10° S 18:29:26 66° E 18:33:52 10° NNE
FREGAT/IRIS 3.4 18:27:21 10° S 18:29:58 46° W 18:32:38 10° NNW
SL-24 R/B 3.9 18:28:57 10° NNE 18:32:58 52° E 18:36:37 10° S
Resurs 01 Rocket 2.2 18:30:56 16° SE 18:33:59 39° ENE 18:38:06 10° N
Meteor 2-17 Rocket 4.4 18:27:57 10° N 18:34:08 74° E 18:40:16 10° SSE
Nadezhda 1 Rocket 4.0 18:29:41 10° S 18:36:03 73° E 18:42:23 10° NNE
Cosmos 1825 Rocket 4.0 18:31:43 10° NNW 18:36:04 62° W 18:40:21 10° S
ERBS 4.1 18:34:30 10° NW 18:37:18 23° NNE 18:39:24 14° ENE
Cosmos 2154 Rocket 4.0 18:31:14 10° N 18:37:38 78° E 18:43:57 10° SSE
USA 186 3.0 18:35:13 10° S 18:38:24 42° W 18:41:28 10° NNW
APEX 4.3 18:32:04 10° NNW 18:38:43 90° ENE 18:43:26 14° SSE
Cosmos 921 Rocket 3.1 18:38:19 10° N 18:42:26 54° ENE 18:44:55 22° SE
STARLINK-1143 4.5 18:39:49 10° WNW 18:43:48 43° NNE 18:46:36 18° ENE
SL-24 R/B - RUBIN 2 4.2 18:39:13 10° SSW 18:44:44 66° ESE 18:51:00 10° NE
Cosmos 407 Rocket 3.4 18:39:47 10° SSW 18:44:54 73° ESE 18:50:02 10° NNE
Cosmos 676 Rocket 4.4 18:41:10 10° S 18:46:03 39° ESE 18:50:55 10° NE
STARLINK-1233 3.3 18:43:22 10° WNW 18:46:29 54° NNE 18:47:47 29° E
STARLINK-1234 2.9 18:43:26 10° WNW 18:46:29 66° NNE 18:47:39 33° E
STARLINK-1212 3.3 18:43:51 10° WNW 18:46:56 54° NNE 18:48:13 30° E
Cosmos 1980 Rocket 4.4 18:45:20 10° NNE 18:47:03 11° NNE 18:48:45 10° NE
STARLINK-1105 3.3 18:44:17 10° WNW 18:47:23 54° NNE 18:48:40 30° E
STARLINK-1209 2.8 18:44:37 10° WNW 18:47:39 70° NNE 18:48:45 35° E
STARLINK-1206 3.2 18:44:46 10° WNW 18:47:51 54° NNE 18:49:04 31° E
Cosmos 2228 3.4 18:43:56 10° SSW 18:48:13 67° W 18:52:33 10° N
STARLINK-1247 3.2 18:45:13 10° WNW 18:48:18 55° NNE 18:49:30 31° E
STARLINK-1227 3.2 18:45:37 10° WNW 18:48:44 55° NNE 18:49:57 31° E
STARLINK-1241 4.4 18:44:51 10° WNW 18:48:51 45° NNE 18:51:25 20° ENE
STARLINK-1218 3.2 18:46:07 10° WNW 18:49:13 55° NNE 18:50:22 32° E
SPOT 3 Rocket 3.6 18:44:19 10° SSE 18:49:32 87° WSW 18:54:46 10° NNW
STARLINK-1226 3.2 18:46:34 10° WNW 18:49:39 56° NNE 18:50:49 32° E
STARLINK-1254 3.2 18:46:58 10° WNW 18:50:05 56° NNE 18:51:15 32° E
STARLINK-1215 3.2 18:47:28 10° WNW 18:50:34 56° NNE 18:51:40 33° E
STARLINK-1231 3.2 18:47:55 10° WNW 18:51:00 57° NNE 18:52:06 34° E
STARLINK-1232 3.2 18:48:50 10° WNW 18:51:56 58° NNE 18:52:59 35° E
STARLINK-1217 3.2 18:49:16 10° WNW 18:52:22 58° NNE 18:53:24 35° E
Cosmos 1461 3.1 18:48:15 10° NW 18:52:48 86° SW 18:55:36 24° SSE
STARLINK-1208 3.2 18:49:40 10° WNW 18:52:48 59° NNE 18:53:51 35° E
STARLINK-1229 3.1 18:50:10 10° WNW 18:53:15 59° NNE 18:54:16 36° E
Aureole 1 Rocket 4.1 18:45:55 10° SSW 18:53:29 88° ESE 18:59:22 10° NNE
STARLINK-1271 3.1 18:50:37 10° WNW 18:53:43 59° NNE 18:54:43 37° E
STARLINK-1239 4.3 18:49:47 10° WNW 18:53:48 46° NNE 18:56:09 22° ENE
STARLINK-1270 3.1 18:51:04 10° WNW 18:54:10 59° NNE 18:55:09 37° E
STARLINK-1154 3.1 18:51:31 10° WNW 18:54:37 60° NNE 18:55:34 38° E
STARLINK-1197 3.1 18:52:25 10° WNW 18:55:32 61° NNE 18:56:27 39° E
STARLINK-1189 3.1 18:52:53 10° WNW 18:55:59 61° NNE 18:56:52 39° E
SJ-6B 4.0 18:52:17 10° S 18:56:14 44° W 19:00:13 10° NNW
STARLINK-1198 3.1 18:53:19 10° WNW 18:56:25 61° NNE 18:57:18 40° E
STARLINK-1188 3.0 18:53:46 10° WNW 18:56:53 62° NNE 18:57:44 41° E
Cosmos 1892 4.3 18:53:59 10° NNE 18:56:55 20° ENE 18:57:00 20° ENE
STARLINK-1235 2.9 18:54:24 10° WNW 18:57:33 75° NNE 18:58:23 45° ESE
Cosmos 1953 Rocket 4.3 18:53:22 10° NNW 18:57:45 55° W 19:02:08 10° S
STARLINK-1187 2.9 18:54:50 10° WNW 18:58:00 69° NNE 18:58:50 44° E
STARLINK-29 3.1 18:55:23 10° SW 18:58:28 47° SE 18:58:47 45° SE
STARLINK-1240 4.3 18:54:48 10° WNW 18:58:50 48° NNE 19:00:57 24° ENE
STARLINK-1199 3.0 18:55:42 10° WNW 18:58:50 64° NNE 18:59:39 43° E
STARLINK-1191 3.0 18:56:10 10° WNW 18:59:18 64° NNE 19:00:06 44° E
STARLINK-1210 3.0 18:56:36 10° WNW 18:59:45 65° NNE 19:00:31 44° E
STARLINK-1221 3.0 18:57:04 10° WNW 19:00:12 65° NNE 19:00:58 45° E
ATLAS 5 CENTAUR R/B 1.4 18:56:08 10° SSW 19:00:15 73° SE 19:04:56 10° NE
STARLINK-60 2.9 18:57:11 10° WSW 19:00:28 84° NNW 19:02:13 25° ENE
STARLINK-1219 3.0 18:57:30 10° WNW 19:00:39 66° NNE 19:01:23 45° E
STARLINK-1222 3.0 18:57:58 10° WNW 19:01:06 66° NNE 19:01:49 46° E
STARLINK-1211 3.0 18:58:25 10° WNW 19:01:33 67° NNE 19:02:15 47° E
STARLINK-1214 3.0 18:58:52 10° WNW 19:02:00 67° NNE 19:02:41 48° E
STARLINK-1245 2.9 18:59:21 10° WNW 19:02:28 67° NNE 19:03:07 49° E
STARLINK-1238 3.0 18:59:45 10° WNW 19:02:55 68° NNE 19:03:34 49° E
STARLINK-1205 2.9 19:00:42 10° WNW 19:03:50 69° NNE 19:04:25 51° E
STARLINK-1216 4.2 18:59:47 10° WNW 19:03:50 49° NNE 19:05:45 27° ENE
STARLINK-1204 2.9 19:01:09 10° WNW 19:04:16 69° NNE 19:04:50 52° E
Terra 3.7 19:03:35 15° ENE 19:04:24 15° ENE 19:07:05 10° NNE
STARLINK-1237 4.2 19:04:45 10° WNW 19:08:49 51° NNE 19:10:31 30° ENE
Cosmos 1954 Rocket 4.0 19:03:56 10° S 19:09:05 59° ESE 19:14:12 10° NNE
Cosmos 1023 Rocket 4.4 19:05:14 10° SSW 19:10:25 90° WNW 19:15:36 10° NNE
Abrixas rocket 1.8 19:08:30 10° WNW 19:11:27 73° SSW 19:11:30 73° S
SPOT 1/Viking Rocket 4.3 19:12:00 30° ESE 19:13:33 37° ENE 19:18:19 10° N
STARLINK-1202 4.1 19:09:45 10° WNW 19:13:50 53° NNE 19:15:18 34° ENE
Cosmos 2058 3.4 19:10:22 10° N 19:14:14 38° ENE 19:14:34 37° E
NOSS 3-4 (A) 4.3 19:08:04 10° NW 19:14:57 58° WSW 19:20:34 19° SSE
NOSS 3-4 (C) 4.3 19:08:11 10° NW 19:15:04 59° WSW 19:20:39 19° SSE
RESURS DK-1 4.1 19:13:38 10° N 19:16:44 20° NE 19:17:24 19° ENE
In-Cosmos 22 Rocket 4.4 19:12:23 10° N 19:18:10 57° ENE 19:20:35 34° SE
Cosmos 1300 2.5 19:17:23 34° S 19:18:56 80° E 19:22:47 10° NNE
FALCON 9 DEB 3.1 19:16:56 10° SW 19:20:15 66° SSE 19:20:15 66° SSE
SL-4 R/B 2.2 19:18:03 10° W 19:21:23 53° NNW 19:22:39 33° NE
Cosmos 1076 Rocket 3.7 19:17:35 10° N 19:21:45 48° ENE 19:22:14 45° E
MOS 1 Rocket 3.7 19:17:02 10° N 19:22:26 78° WNW 19:27:52 10° SSW
Cosmos 1340 Rocket 3.8 19:19:46 10° SSW 19:23:42 49° WNW 19:27:38 10° N
STARLINK-1246 3.9 19:19:43 10° WNW 19:23:50 58° NNE 19:24:53 43° ENE
STARLINK-1203 3.9 19:20:21 10° WNW 19:24:32 62° NNE 19:25:34 45° E
STARLINK-1201 2.9 19:22:15 10° WNW 19:25:27 84° W 19:25:27 84° W
H-2A R/B 4.3 19:21:51 10° SW 19:25:52 22° W 19:29:49 10° NW
STARLINK-67 4.5 19:25:41 10° WNW 19:27:10 23° WSW 19:27:10 23° WSW
STARLINK-1224 3.9 19:24:41 10° WNW 19:28:49 61° NNE 19:29:39 49° ENE
Cosmos 1763 Rocket 3.9 19:24:25 10° NNW 19:29:24 44° ENE 19:30:27 39° E
STARLINK-1225 3.8 19:29:41 10° WNW 19:33:49 64° NNE 19:34:27 55° ENE
MetOp-B 4.1 19:33:01 36° SSE 19:35:18 90° W 19:40:42 10° NNW
SAR-Lupe-2 3.4 19:33:11 10° NNE 19:36:47 90° WNW 19:36:47 90° WNW
COSMOS 2406 4.1 19:39:02 30° ENE 19:39:02 30° ENE 19:42:44 10° NE
STARLINK-1230 3.6 19:34:40 10° WNW 19:38:49 68° NNE 19:39:14 62° ENE
STARLINK-52 4.5 19:35:46 10° WSW 19:37:28 29° WSW 19:37:28 29° WSW
Cosmos 1174 4.2 19:35:28 10° NNW 19:39:32 65° NE 19:40:09 57° E
USA 234 3.2 19:34:17 10° ENE 19:40:44 58° SE 19:47:09 10° SW
Meteor 2-10 Rocket 4.4 19:42:15 32° ENE 19:42:15 32° ENE 19:46:17 10° NNE
STARLINK-1243 3.6 19:39:38 10° WNW 19:43:47 72° NNE 19:44:01 69° NE
Iridium 4 Rocket 2.8 19:40:48 10° N 19:44:57 72° ENE 19:44:57 72° ENE
ATLAS 2AS CENTAUR R/B 4.0 19:40:14 10° NW 19:46:52 35° WSW 19:51:22 17° SSW
STARLINK-1236 3.6 19:44:36 10° WNW 19:48:46 76° NNE 19:48:47 76° NNE
STPSAT 2 (USA 217) 4.4 19:48:49 62° SSW 19:49:33 85° ESE 19:54:04 10° NNE
USA 32 4.2 19:45:26 10° N 19:50:32 50° E 19:50:42 50° E
CZ-4C R/B 3.8 19:46:56 10° NNW 19:53:15 38° NE 19:56:49 25° E
Cosmos 2369 4.3 19:52:05 10° NNW 19:57:25 40° NE 19:58:09 38° ENE
Meteor 2-1 Rocket 4.2 19:56:24 45° S 19:58:19 80° E 20:04:18 10° NNE
Spot 2 Rocket 3.7 19:56:54 45° SSW 19:58:20 66° WSW 20:03:26 10° NNW
STARLINK-1269 3.7 19:54:33 10° WNW 19:58:20 72° NW 19:58:20 72° NW
Cosmos 1850 Rocket 3.9 19:59:21 64° E 19:59:21 64° E 20:04:16 10° NNE
Landsat 7 3.7 19:58:57 70° S 19:59:29 83° WSW 20:04:17 10° NNW
CZ-2C R/B 3.8 19:55:46 10° N 20:00:35 41° WNW 20:05:26 10° SW
COSMOS 2455 3.7 19:57:22 10° NW 20:02:59 41° WSW 20:05:12 30° SSW
Cosmos 1697 Rocket 3.2 19:58:01 10° NNW 20:03:28 45° NE 20:04:03 43° ENE
STARLINK-1200 3.9 19:59:33 10° WNW 20:03:07 65° WNW 20:03:07 65° WNW
Cosmos 1408 4.0 20:00:06 10° N 20:02:18 33° NNE 20:02:18 33° NNE
CARTOSAT-1 3.9 20:06:16 57° NNE 20:06:16 57° NNE 20:09:57 10° N
IGS 5A 3.7 20:06:53 67° WNW 20:06:53 67° WNW 20:10:48 10° NNW
Cosmos 841 Rocket 3.8 20:01:34 10° NNW 20:06:44 51° ENE 20:06:47 51° ENE
STARLINK-1192 4.1 20:04:32 10° WNW 20:07:54 58° WNW 20:07:54 58° WNW
Cosmos 2218 Rocket 4.3 20:03:37 10° NNW 20:09:44 63° W 20:12:17 36° SSW
Resurs 01 Rocket 3.6 20:08:29 17° SW 20:10:36 24° W 20:14:11 10° NW
Okean 3 Rocket 4.2 20:09:13 10° N 20:12:40 49° NNE 20:12:40 49° NNE
STARLINK-1244 4.3 20:09:30 10° WNW 20:12:41 51° WNW 20:12:41 51° WNW
ERBS 4.3 20:10:35 10° NW 20:12:22 29° WNW 20:12:22 29° WNW
Mayak 1.3 20:10:56 10° NE 20:11:12 11° NE 20:11:12 11° NE
Cosmos 468 Rocket 4.1 20:12:35 10° NNW 20:17:43 65° WSW 20:18:01 63° SW
ATLAS CENTAUR R/B 2.9 20:14:13 10° NNW 20:16:45 27° NNE 20:16:45 27° NNE
Cosmos 1766 Rocket 4.4 20:14:28 10° N 20:17:49 45° NNE 20:17:49 45° NNE
SL-16 R/B 4.2 20:17:19 10° N 20:20:45 16° NE 20:22:22 14° ENE
Cosmos 1570 Rocket 3.9 20:16:38 10° NNW 20:21:55 80° NE 20:21:55 80° NE
ERS-1 Rocket 3.0 20:27:20 70° W 20:27:20 70° W 20:32:20 10° NNW
Cosmos 1455 4.1 20:30:11 27° N 20:30:11 27° N 20:32:02 10° N
Meteor 2-3 Rocket 4.2 20:23:37 10° N 20:28:43 47° ENE 20:28:43 47° ENE
Cosmos 2322 Rocket 4.3 20:25:53 10° N 20:29:12 16° NE 20:30:45 14° NE
Cosmos 1656 3.6 20:25:09 10° NNW 20:30:50 74° WSW 20:30:56 74° SW
Cosmos 1980 Rocket 2.9 20:27:21 10° NNW 20:32:34 42° NE 20:32:34 42° NE
Cosmos 1892 4.4 20:29:09 10° NNW 20:32:00 32° WNW 20:32:00 32° WNW
SPOT 5 3.3 20:34:13 51° NW 20:34:13 51° NW 20:37:35 10° NNW
Terra 2.3 20:42:27 58° NNW 20:42:27 58° NNW 20:46:18 10° NNW
Cosmos 1825 4.1 20:39:09 10° NNW 20:41:04 28° NNW 20:41:04 28° NNW
ATLAS 5 CENTAUR R/B 3.9 20:41:50 10° W 20:45:26 24° NNW 20:49:28 10° NNE
Nadezhda 3 Rocket 3.9 20:50:21 81° SW 20:50:37 83° W 20:56:56 10° N
Cosmos 2151 4.5 20:47:06 10° NNW 20:49:52 34° NW 20:49:52 34° NW
Cosmos 2360 4.4 20:47:47 10° NNW 20:52:50 66° NNE 20:52:50 66° NNE
RESURS DK-1 4.2 20:51:02 10° NW 20:53:17 30° NW 20:53:17 30° NW
Cosmos 2278 4.0 20:54:07 10° NNW 20:58:59 64° N 20:58:59 64° N
Cosmos 2082 Rocket 3.6 21:03:59 29° NE 21:03:59 29° NE 21:06:47 10° NE
Cosmos 1833 Rocket 3.3 21:13:44 50° NNE 21:13:44 50° NNE 21:17:54 10° NNE
BREEZE M DEB (TANK) 4.3 21:14:31 10° W 21:19:34 81° N 21:39:33 10° E
COSMOS 2406 4.1 21:20:59 41° WNW 21:21:50 44° NW 21:27:19 10° NNE
USA 234 3.7 21:17:23 10° NE 21:23:47 59° NNW 21:30:11 10° WSW
Cosmos 1934 Rocket 4.2 21:19:02 10° NNW 21:24:38 64° WNW 21:24:38 64° WNW
Cosmos 1605 Rocket 4.3 21:33:32 10° N 21:38:36 62° NNW 21:38:36 62° NNW
CZ-4C R/B 2.9 21:35:17 10° NW 21:42:00 75° W 21:42:00 75° W
Cosmos 1697 Rocket 4.2 21:42:15 10° NW 21:45:47 29° WNW 21:45:47 29° WNW
Mayak 1.2 21:46:11 10° N 21:47:47 20° NNW 21:47:47 20° NNW
SL-16 R/B 3.2 22:00:21 10° NNW 22:04:14 43° N 22:04:14 43° N
Cosmos 2360 Rocket 3.6 22:04:17 10° NNW 22:08:30 33° NNE 22:08:30 33° NNE
Cosmos 2322 Rocket 3.3 22:08:48 10° NNW 22:12:34 41° N 22:12:34 41° N
Cosmos 1980 Rocket 3.9 22:11:32 10° NW 22:14:20 26° WNW 22:14:20 26° WNW
Cosmos 2333 Rocket 4.1 22:20:02 10° N 22:24:22 22° NE 22:25:05 21° NE
Cosmos 2082 Rocket 3.8 22:45:47 29° NW 22:45:47 29° NW 22:50:35 10° NNE
SL-16 R/B 4.3 22:46:28 21° ENE 22:47:53 23° NE 22:52:34 10° N
USA 234 4.4 23:00:12 10° ENE 23:06:09 39° N 23:12:07 10° WNW
Cosmos 2219 Rocket 3.5 23:02:45 10° NNW 23:07:20 35° NE 23:07:20 35° NE
COSMOS 2428 3.7 23:23:28 10° NNW 23:28:04 43° NNE 23:28:04 43° NNE
SJ 16-02 3.8 23:37:59 18° NE 23:37:59 18° NE 23:39:20 10° NE
Resurs 1-4 Rocket 3.8 23:34:34 10° NE 23:37:53 26° ENE 23:37:53 26° ENE
Cosmos 2360 Rocket 4.0 23:48:14 10° NW 23:50:15 22° NW 23:50:15 22° NW
